FW3835 Weather Reports


Display with metric or nautical units.
time (UTC)temp
F
wind
direction
speed
MPH
gust
MPH
rain 1hr
in
rain 24hr
in
rain mn
in
humidity
%
barometer
mb
20260504034506 62 235 6.0 16.0 0.00 0.00 0.00 24 993.8
20260504033016 62 198 5.0 18.0 0.00 0.00 0.00 23 994.3
20260504031520 63 123 6.0 12.0 0.00 0.00 0.00 23 994.7
20260504030021 62 181 3.0 12.0 0.00 0.00 0.00 25 995.2
20260504024505 63 263 2.0 13.0 0.00 0.00 0.00 24 995.6
20260504023010 63 266 4.0 12.0 0.00 0.00 0.00 24 995.8
20260504021518 63 217 4.0 12.0 0.00 0.00 0.00 24 996.3
20260504020020 63 201 3.0 10.0 0.00 0.00 0.00 24 996.6
20260504014527 63 208 5.0 12.0 0.00 0.00 0.00 23 996.9
20260504013005 63 184 2.0 13.0 0.00 0.00 0.00 24 997.3
20260504011512 64 271 1.0 9.0 0.00 0.00 0.00 24 997.6
20260504010015 64 234 3.0 13.0 0.00 0.00 0.00 23 998.0
20260504004522 65 241 2.0 11.0 0.00 0.00 0.00 22 998.3
20260504003029 66 234 1.0 9.0 0.00 0.00 0.00 22 998.7
20260504001509 66 190 2.0 8.0 0.00 0.00 0.00 21 999.0
20260504000014 66 252 4.0 10.0 0.00 0.00 0.00 21 999.4
20260503234518 66 248 3.0 16.0 0.00 0.00 0.00 22 999.7
20260503233033 67 223 1.0 8.0 0.00 0.00 0.00 21 999.9
20260503231523 68 213 3.0 11.0 0.00 0.00 0.00 19 1000.3
20260503230011 70 254 2.0 10.0 0.00 0.00 0.00 18 1000.5
20260503224517 70 274 2.0 10.0 0.00 0.00 0.00 18 1000.9
20260503223018 70 303 4.0 10.0 0.00 0.00 0.00 18 1001.2
20260503221529 69 273 3.0 11.0 0.00 0.00 0.00 19 1001.7
20260503220028 71 248 3.0 7.0 0.00 0.00 0.00 19 1001.9
20260503214514 71 282 3.0 9.0 0.00 0.00 0.00 19 1002.3
20260503213017 69 271 2.0 11.0 0.00 0.00 0.00 20 1002.6
20260503211524 69 291 2.0 9.0 0.00 0.00 0.00 21 1003.1
20260503210026 69 271 5.0 13.0 0.00 0.00 0.00 17 1003.2
20260503204526 69 252 2.0 10.0 0.00 0.00 0.00 16 1003.7
20260503203016 67 261 3.0 8.0 0.00 0.00 0.00 17 1003.9
20260503201518 69 242 3.0 14.0 0.00 0.00 0.00 15 1004.2
20260503200024 68 278 3.0 9.0 0.00 0.00 0.00 16 1004.5
20260503194508 68 213 2.0 7.0 0.00 0.00 0.00 18 1004.8
20260503193014 67 240 3.0 7.0 0.00 0.00 0.00 19 1005.4
20260503191518 66 275 3.0 9.0 0.00 0.00 0.00 19 1005.8
20260503190022 66 298 4.0 10.0 0.00 0.00 0.00 19 1006.0
20260503184524 65 284 3.0 15.0 0.00 0.00 0.00 20 1006.5
20260503183014 64 239 4.0 13.0 0.00 0.00 0.00 20 1006.7
20260503181514 64 196 3.0 9.0 0.00 0.00 0.00 20 1007.0
20260503180021 63 202 3.0 7.0 0.00 0.00 0.00 20 1007.3
20260503174524 63 230 3.0 12.0 0.00 0.00 0.00 21 1007.4
20260503173028 63 303 3.0 7.0 0.00 0.00 0.00 21 1007.6
20260503171511 62 262 2.0 11.0 0.00 0.00 0.00 23 1007.9
20260503081506 38 28 0.0 0.0 0.00 0.00 0.00 67 1007.4
20260503071518 40 30 0.0 0.0 0.00 0.00 0.00 66 1007.2
20260503054518 44 30 0.0 0.0 0.00 0.00 0.00 59 1007.3
20260503053016 45 30 0.0 0.0 0.00 0.00 0.00 57 1007.1
20260503051517 47 30 0.0 0.0 0.00 0.00 0.00 56 1007.1
20260503050028 47 30 0.0 1.0 0.00 0.00 0.00 56 1006.9
20260503044522 48 30 0.0 2.0 0.00 0.00 0.00 55 1007.0
20260503043019 48 29 1.0 3.0 0.00 0.00 0.00 54 1007.1
20260503041516 49 30 0.0 3.0 0.00 0.00 0.00 52 1007.1
20260503040019 50 34 1.0 6.0 0.00 0.00 0.00 52 1007.0